Fairbanks, AK

9:24 AM AKST on February 19, 2018 (GMT -0900)
Fairbanks International

Weather History for PAFA - December, 2014

Change the Weather History Date:

Friday, December 5, 2014

  Actual Average Record
Temperature  
Mean Temperature 2 °F -3 °F  
Max Temperature 17 °F 6 °F 58 °F (1934)
Min Temperature -13 °F -11 °F -55 °F (1905)
Degree Days  
Heating Degree Days 63 68  
Month to date heating degree days 273 337  
Since 1 July heating degree days 3991 4468  
Cooling Degree Days 0 0  
Month to date cooling degree days 0 0  
Year to date cooling degree days 27 61  
Moisture  
Dew Point -1 °F    
Average Humidity 74    
Maximum Humidity 81    
Minimum Humidity 58    
Precipitation  
Precipitation T in 0.01 in 0.29 in (1929)
Month to date precipitation 0.48 0.09  
Year to date precipitation 16.71 10.26  
Snow  
Snow T in 0.30 in 5.20 in (1929)
Month to date snowfall 6.2 1.8  
Since 1 July snowfall 16.0 27.6  
Snow Depth 8.00 in    
Sea Level Pressure  
Sea Level Pressure 29.88 in    
Wind  
Wind Speed 1 mph (NE)    
Max Wind Speed 7 mph    
Max Gust Speed -    
Visibility 10 miles    
Events Snow    
T = Trace of Precipitation, MM = Missing Value Source: NWS Daily Summary

Daily Weather History Graph

Daily Weather History Graph

Search for Another Location

Airport or City:

Trip Planner

Search our weather history database for the weather conditions in past years. The results will help you decide how hot, cold, wet, or windy it might be!

Date:

Astronomy

Dec. 05, 2014 Rise Set
Actual Time 10:30 AM AKST 2:53 PM AKST
Civil Twilight 9:12 AM AKST 4:11 PM AKST
Nautical Twilight 8:03 AM AKST 5:20 PM AKST
Astronomical Twilight 7:03 AM AKST 6:20 PM AKST
Moon 3:29 PM AKST (12/5) 8:49 AM AKST (12/5)
Length of Visible Light 6h 58m
Length of Day
4h 22m
Full, 100% of the Moon is Illuminated
Dec 5
Full
Dec 6
Full
Dec 14
Last Quarter
Dec 21
New
Dec 28
First Quarter

Hourly Weather History & Observations

Time (AKST) Temp. Windchill Dew Point Humidity Pressure Visibility Wind Dir Wind Speed Gust Speed Precip Events Conditions
12:53 AM -9.0 °F - -16.1 °F 71% 29.94 in 10.0 mi Calm Calm - N/A   Partly Cloudy
1:53 AM -11.9 °F - -18.9 °F 71% 29.94 in 10.0 mi Calm Calm - N/A   Scattered Clouds
2:53 AM -7.1 °F -18.1 °F -14.1 °F 72% 29.94 in 10.0 mi ENE 4.6 mph - N/A   Scattered Clouds
3:53 AM -4.0 °F - -9.9 °F 76% 29.93 in 10.0 mi Calm Calm - N/A   Mostly Cloudy
4:53 AM -0.9 °F - -8.0 °F 72% 29.93 in 10.0 mi Calm Calm - N/A   Mostly Cloudy
5:53 AM 1.0 °F - -6.0 °F 72% 29.92 in 10.0 mi Calm Calm - N/A   Mostly Cloudy
6:53 AM -0.0 °F - -6.0 °F 76% 29.91 in 10.0 mi Calm Calm - N/A   Mostly Cloudy
7:53 AM 1.9 °F - -5.1 °F 72% 29.91 in 10.0 mi Calm Calm - N/A   Mostly Cloudy
8:53 AM 3.0 °F - -2.9 °F 76% 29.91 in 10.0 mi Calm Calm - N/A   Mostly Cloudy
9:53 AM 1.9 °F - -4.0 °F 76% 29.92 in 10.0 mi Calm Calm - N/A   Mostly Cloudy
10:53 AM 3.9 °F - -2.0 °F 76% 29.91 in 10.0 mi Calm Calm - N/A   Overcast
11:53 AM 3.9 °F - -2.0 °F 76% 29.91 in 10.0 mi Calm Calm - N/A   Mostly Cloudy
12:53 PM 3.9 °F - -0.9 °F 80% 29.90 in 10.0 mi Calm Calm - N/A   Mostly Cloudy
1:53 PM 6.1 °F - -0.0 °F 76% 29.89 in 10.0 mi Calm Calm - N/A   Mostly Cloudy
2:53 PM 9.0 °F - 3.0 °F 77% 29.87 in 10.0 mi Calm Calm - N/A   Overcast
3:53 PM 15.1 °F 7.7 °F 9.0 °F 77% 29.86 in 10.0 mi NE 4.6 mph - N/A   Overcast
4:53 PM 15.1 °F 7.7 °F 8.1 °F 74% 29.86 in 10.0 mi NE 4.6 mph - N/A Snow Light Snow
5:53 PM 16.0 °F 6.3 °F 10.0 °F 77% 29.84 in 10.0 mi North 6.9 mph - N/A Snow Light Snow
6:53 PM 15.1 °F 7.7 °F 9.0 °F 77% 29.83 in 10.0 mi NNE 4.6 mph - N/A Snow Light Snow
7:53 PM 15.1 °F 6.4 °F 8.1 °F 74% 29.83 in 10.0 mi NE 5.8 mph - N/A   Overcast
8:53 PM 12.9 °F 3.8 °F 8.1 °F 81% 29.81 in 10.0 mi NE 5.8 mph - N/A   Overcast
9:53 PM 12.9 °F 6.9 °F 8.1 °F 81% 29.80 in 10.0 mi NNE 3.5 mph - N/A   Overcast
10:53 PM 10.9 °F 2.9 °F 6.1 °F 81% 29.80 in 10.0 mi NE 4.6 mph - N/A   Mostly Cloudy
11:53 PM 10.0 °F - 5.0 °F 80% 29.79 in 10.0 mi Calm Calm - N/A   Mostly Cloudy